View from above orbital plane
|
View from above satellite
|
Ground track
|
The orbit data is extracted from the following two-line orbital elements,
1 00058U 60013A 21059.83507406 .00000074 00000-0 -13590-4 0 9997
2 00058 28.3258 233.9401 0165023 31.8440 329.1964 13.46325562973192
Epoch (UTC): | 28 February 2021 20:02:30 |
Eccentricity: | 0.0165023 |
inclination: | 28.3258° |
perigee height: | 962 km |
apogee height: | 1209 km |
right ascension of ascending node: | 233.9401° |
argument of perigee: | 31.8440° |
revolutions per day: | 13.46325562 |
mean anomaly at epoch: | 329.1964° |
orbit number at epoch: | 97319 |
The dashed part of the orbit path shows where the satellite is in the earth's shadow,
|
|